| time (UTC) | temp F | wind direction | speed MPH | gust MPH | rain 1hr in | rain 24hr in | rain mn in | humidity % | barometer mb |
| 20260902164538 | 90 | 90 | 4.0 | 0.0 | 0.00 | 0.00 | 0.00 | 56 | 1011.5 |
| 20260902163037 | 90 | 66 | 4.0 | 0.0 | 0.00 | 0.00 | 0.00 | 57 | 1011.6 |
| 20260902161542 | 89 | 61 | 3.0 | 0.0 | 0.00 | 0.00 | 0.00 | 59 | 1011.7 |
| 20260902160033 | 88 | 90 | 3.0 | 0.0 | 0.00 | 0.00 | 0.00 | 61 | 1011.8 |
| 20260902154528 | 86 | 24 | 1.0 | 0.0 | 0.00 | 0.00 | 0.00 | 64 | 1011.8 |
| 20260902153023 | 86 | 25 | 2.0 | 0.0 | 0.00 | 0.00 | 0.00 | 66 | 1011.8 |
| 20260902151520 | 84 | 90 | 2.0 | 0.0 | 0.00 | 0.00 | 0.00 | 68 | 1011.8 |
| 20260902150017 | 84 | 63 | 2.0 | 0.0 | 0.00 | 0.00 | 0.00 | 70 | 1011.8 |
| 20260902144516 | 83 | 67 | 3.0 | 0.0 | 0.00 | 0.00 | 0.00 | 71 | 1011.8 |
| 20260902143016 | 83 | 86 | 2.0 | 0.0 | 0.00 | 0.00 | 0.00 | 73 | 1011.8 |
| 20260902141522 | 82 | 89 | 3.0 | 0.0 | 0.00 | 0.00 | 0.00 | 74 | 1011.7 |
| 20260902140015 | 81 | 90 | 2.0 | 0.0 | 0.00 | 0.00 | 0.00 | 76 | 1011.7 |
| 20260902134514 | 80 | 88 | 3.0 | 0.0 | 0.00 | 0.00 | 0.00 | 77 | 1011.7 |
| 20260902133013 | 79 | 101 | 2.0 | 0.0 | 0.00 | 0.00 | 0.00 | 77 | 1011.7 |
| 20260902131521 | 78 | 101 | 3.0 | 0.0 | 0.00 | 0.00 | 0.00 | 79 | 1011.7 |
| 20260902130013 | 77 | 90 | 4.0 | 0.0 | 0.00 | 0.00 | 0.00 | 82 | 1011.4 |
| 20260902124510 | 76 | 114 | 2.0 | 0.0 | 0.00 | 0.00 | 0.00 | 82 | 1011.3 |
| 20260902123011 | 75 | 117 | 1.0 | 0.0 | 0.00 | 0.00 | 0.00 | 83 | 1011.0 |
| 20260902121510 | 75 | 117 | 0.0 | 0.0 | 0.00 | 0.00 | 0.00 | 82 | 1010.9 |
| 20260902120009 | 75 | 117 | 0.0 | 0.0 | 0.00 | 0.00 | 0.00 | 82 | 1010.9 |
| 20260902114518 | 76 | 117 | 1.0 | 0.0 | 0.00 | 0.00 | 0.00 | 82 | 1010.8 |
| 20260902113010 | 76 | 117 | 2.0 | 0.0 | 0.00 | 0.00 | 0.00 | 81 | 1011.0 |
| 20260902111506 | 76 | 117 | 1.0 | 0.0 | 0.00 | 0.00 | 0.00 | 81 | 1011.0 |
| 20260902110011 | 76 | 117 | 2.0 | 0.0 | 0.00 | 0.00 | 0.00 | 80 | 1010.8 |
| 20260902104506 | 77 | 119 | 0.0 | 0.0 | 0.00 | 0.00 | 0.00 | 79 | 1010.8 |
| 20260902103002 | 77 | 119 | 0.0 | 0.0 | 0.00 | 0.00 | 0.00 | 78 | 1010.8 |
| 20260902101500 | 77 | 119 | 2.0 | 0.0 | 0.00 | 0.00 | 0.00 | 78 | 1010.9 |
| 20260902100100 | 78 | 119 | 2.0 | 0.0 | 0.00 | 0.00 | 0.00 | 77 | 1010.8 |
| 20260902094558 | 78 | 119 | 1.0 | 0.0 | 0.00 | 0.00 | 0.00 | 77 | 1010.9 |
| 20260902093056 | 78 | 119 | 0.0 | 0.0 | 0.00 | 0.00 | 0.00 | 76 | 1010.7 |
| 20260902091556 | 78 | 119 | 0.0 | 0.0 | 0.00 | 0.00 | 0.00 | 76 | 1010.7 |
| 20260902090058 | 79 | 119 | 0.0 | 0.0 | 0.00 | 0.00 | 0.00 | 75 | 1010.7 |
| 20260902084559 | 79 | 119 | 0.0 | 0.0 | 0.00 | 0.00 | 0.00 | 75 | 1010.6 |
| 20260902083053 | 79 | 119 | 0.0 | 0.0 | 0.00 | 0.00 | 0.00 | 75 | 1010.7 |
| 20260902081552 | 79 | 119 | 0.0 | 0.0 | 0.00 | 0.00 | 0.00 | 74 | 1010.7 |
| 20260902074548 | 80 | 119 | 2.0 | 0.0 | 0.00 | 0.00 | 0.00 | 73 | 1010.8 |
| 20260902073045 | 81 | 116 | 2.0 | 0.0 | 0.00 | 0.00 | 0.00 | 71 | 1010.8 |
| 20260902071544 | 81 | 117 | 2.0 | 0.0 | 0.00 | 0.00 | 0.00 | 71 | 1010.7 |
| 20260902070044 | 81 | 107 | 2.0 | 0.0 | 0.00 | 0.00 | 0.00 | 71 | 1011.0 |
| 20260902064544 | 82 | 108 | 2.0 | 0.0 | 0.00 | 0.00 | 0.00 | 70 | 1010.8 |
| 20260902063040 | 82 | 105 | 3.0 | 0.0 | 0.00 | 0.00 | 0.00 | 70 | 1010.7 |
| 20260902061545 | 82 | 107 | 2.0 | 0.0 | 0.00 | 0.00 | 0.00 | 69 | 1010.7 |
| 20260902060038 | 82 | 107 | 3.0 | 0.0 | 0.00 | 0.00 | 0.00 | 69 | 1010.7 |
| 20260902054530 | 83 | 111 | 4.0 | 0.0 | 0.00 | 0.00 | 0.00 | 68 | 1010.7 |
| 20260902051504 | 83 | 115 | 3.0 | 0.0 | 0.00 | 0.00 | 0.00 | 67 | 1010.7 |
| 20260902050004 | 84 | 105 | 4.0 | 0.0 | 0.00 | 0.00 | 0.00 | 66 | 1010.7 |
| 20260902044502 | 84 | 123 | 3.0 | 0.0 | 0.00 | 0.00 | 0.00 | 64 | 1010.6 |
| 20260902043002 | 85 | 115 | 3.0 | 0.0 | 0.00 | 0.00 | 0.00 | 63 | 1010.7 |
| 20260902041504 | 86 | 111 | 3.0 | 0.0 | 0.00 | 0.00 | 0.00 | 62 | 1010.7 |
| 20260902040001 | 86 | 113 | 4.0 | 0.0 | 0.00 | 0.00 | 0.00 | 61 | 1010.6 |
| 20260902034501 | 87 | 114 | 5.0 | 0.0 | 0.00 | 0.00 | 0.00 | 59 | 1010.6 |
| 20260902033111 | 87 | 109 | 6.0 | 0.0 | 0.00 | 0.00 | 0.00 | 59 | 1010.3 |
| 20260902031559 | 87 | 102 | 2.0 | 0.0 | 0.00 | 0.00 | 0.00 | 57 | 1010.0 |
| 20260902030107 | 87 | 102 | 1.0 | 0.0 | 0.00 | 0.00 | 0.00 | 57 | 1009.7 |
| 20260902024559 | 87 | 102 | 1.0 | 0.0 | 0.00 | 0.00 | 0.00 | 58 | 1009.6 |
| 20260902023112 | 88 | 103 | 0.0 | 0.0 | 0.00 | 0.00 | 0.00 | 56 | 1009.4 |
| 20260902021615 | 88 | 102 | 2.0 | 0.0 | 0.00 | 0.00 | 0.00 | 55 | 1009.1 |
| 20260902020101 | 88 | 103 | 2.0 | 0.0 | 0.00 | 0.00 | 0.00 | 54 | 1009.0 |
| 20260902014558 | 89 | 102 | 2.0 | 0.0 | 0.00 | 0.00 | 0.00 | 53 | 1008.8 |
| 20260902013057 | 90 | 88 | 4.0 | 0.0 | 0.00 | 0.00 | 0.00 | 51 | 1008.7 |
| 20260902011557 | 91 | 72 | 3.0 | 0.0 | 0.00 | 0.00 | 0.00 | 49 | 1008.6 |
| 20260902010101 | 91 | 72 | 4.0 | 0.0 | 0.00 | 0.00 | 0.00 | 48 | 1008.6 |
| 20260902004556 | 92 | 67 | 4.0 | 0.0 | 0.00 | 0.00 | 0.00 | 47 | 1008.5 |
| 20260902003055 | 93 | 67 | 5.0 | 0.0 | 0.00 | 0.00 | 0.00 | 46 | 1008.5 |
| 20260902001555 | 94 | 67 | 5.0 | 0.0 | 0.00 | 0.00 | 0.00 | 45 | 1008.6 |
| 20260902000058 | 94 | 66 | 6.0 | 0.0 | 0.00 | 0.00 | 0.00 | 45 | 1008.5 |
| 20260901234611 | 94 | 69 | 7.0 | 0.0 | 0.00 | 0.00 | 0.00 | 45 | 1008.6 |
| 20260901233055 | 95 | 105 | 6.0 | 0.0 | 0.00 | 0.00 | 0.00 | 45 | 1008.6 |
| 20260901231553 | 95 | 69 | 5.0 | 0.0 | 0.00 | 0.00 | 0.00 | 44 | 1008.6 |
| 20260901230133 | 95 | 95 | 6.0 | 0.0 | 0.00 | 0.00 | 0.00 | 43 | 1008.8 |
| 20260901224552 | 95 | 95 | 4.0 | 0.0 | 0.00 | 0.00 | 0.00 | 43 | 1009.0 |
| 20260901223108 | 95 | 106 | 5.0 | 0.0 | 0.00 | 0.00 | 0.00 | 43 | 1009.0 |
| 20260901221550 | 95 | 103 | 7.0 | 0.0 | 0.00 | 0.00 | 0.00 | 42 | 1008.9 |
| 20260901220058 | 95 | 115 | 3.0 | 0.0 | 0.00 | 0.00 | 0.00 | 43 | 1008.9 |
| 20260901214549 | 96 | 109 | 5.0 | 0.0 | 0.00 | 0.00 | 0.00 | 42 | 1009.1 |
| 20260901213050 | 96 | 65 | 6.0 | 0.0 | 0.00 | 0.00 | 0.00 | 41 | 1009.1 |
| 20260901211554 | 98 | 110 | 5.0 | 0.0 | 0.00 | 0.00 | 0.00 | 39 | 1009.2 |
| 20260901210057 | 97 | 106 | 8.0 | 0.0 | 0.00 | 0.00 | 0.00 | 40 | 1009.4 |
| 20260901204548 | 96 | 74 | 3.0 | 0.0 | 0.00 | 0.00 | 0.00 | 42 | 1009.6 |
| 20260901203050 | 97 | 48 | 5.0 | 0.0 | 0.00 | 0.00 | 0.00 | 41 | 1009.6 |
| 20260901201545 | 97 | 94 | 6.0 | 0.0 | 0.00 | 0.00 | 0.00 | 42 | 1009.8 |
| 20260901200054 | 98 | 215 | 2.0 | 0.0 | 0.00 | 0.00 | 0.00 | 41 | 1009.9 |
| 20260901194559 | 96 | 93 | 6.0 | 0.0 | 0.00 | 0.00 | 0.00 | 43 | 1010.2 |
| 20260901193042 | 95 | 76 | 4.0 | 0.0 | 0.00 | 0.00 | 0.00 | 44 | 1010.4 |
| 20260901191543 | 97 | 103 | 3.0 | 0.0 | 0.00 | 0.00 | 0.00 | 42 | 1010.7 |
| 20260901190050 | 97 | 180 | 4.0 | 0.0 | 0.00 | 0.00 | 0.00 | 41 | 1010.7 |
| 20260901184537 | 96 | 57 | 5.0 | 0.0 | 0.00 | 0.00 | 0.00 | 43 | 1010.9 |
| 20260901183042 | 96 | 61 | 3.0 | 0.0 | 0.00 | 0.00 | 0.00 | 45 | 1011.3 |
| 20260901181544 | 94 | 182 | 3.0 | 0.0 | 0.00 | 0.00 | 0.00 | 47 | 1011.7 |
| 20260901180035 | 96 | 117 | 5.0 | 0.0 | 0.00 | 0.00 | 0.00 | 46 | 1011.9 |
| 20260901174532 | 94 | 78 | 2.0 | 0.0 | 0.00 | 0.00 | 0.00 | 47 | 1012.2 |
| 20260901173031 | 92 | 182 | 2.0 | 0.0 | 0.00 | 0.00 | 0.00 | 50 | 1012.4 |
| 20260901171532 | 94 | 78 | 4.0 | 0.0 | 0.00 | 0.00 | 0.00 | 49 | 1012.5 |
| 20260901170028 | 93 | 94 | 4.0 | 0.0 | 0.00 | 0.00 | 0.00 | 50 | 1012.5 |